Terminal Aerodrome Forecast
Issued by NWS Blacksburg, VA

Current Version | Previous Version | Graphics & Text | Print | Product List | Glossary On
Versions: 1 2 3 4 5 6 7 8 9 10 11 12 13 14 15 16 17 18 19 20 21 22 23 24 25 26 27 28 29 30 31 32 33 34 35 36 37 38 39 40 41 42 43 44 45 46 47 48 49 50
000
FTUS41 KRNK 190855 AAB
TAFBLF
TAF AMD
KBLF 190855Z 1909/2006 30008KT P6SM SCT007 OVC020
     FM191400 30007KT P6SM BKN025
     FM191600 31006KT P6SM SCT040
     FM200200 21005KT P6SM SCT100=

USA.gov is the U.S. government's official web portal to all federal, state and local government web resources and services.